Location: Observatoire POLARIS
(46.3550°N, 73.3861°W)
Time: 03:24:56
(UTC-05:00)

Tiangong 1 - Visible Passes

Search period start: 21 November 2017 00:00
Search period end: 01 December 2017 00:00
Orbit: 285 x 308 km, 42.8° (Epoch: 20 November)

Date Brightness Start Highest point End Pass type
(mag) Time Alt. Az. Time Alt. Az. Time Alt. Az.
25 Nov 3.2 17:51:13 10° S 17:51:59 12° SSE 17:51:59 12° SSE visible
26 Nov 2.8 17:56:41 10° SSW 17:58:10 18° S 17:58:10 18° S visible
27 Nov 2.5 18:02:32 10° SW 18:04:11 23° S 18:04:11 23° S visible
28 Nov 2.5 18:08:28 10° WSW 18:10:05 26° SSW 18:10:05 26° SSW visible
29 Nov 2.6 16:40:24 10° SW 16:42:27 21° SSE 16:44:29 10° ESE visible
29 Nov 2.8 18:14:25 10° WSW 18:15:52 25° SW 18:15:52 25° SW visible
30 Nov 2.2 16:45:59 10° SW 16:48:16 28° SSE 16:50:34 10° ESE visible
30 Nov 3.1 18:20:18 10° WSW 18:21:32 22° SW 18:21:32 22° SW visible
